Tracking 29892 objects as of 21-Nov-2024
HD Live streaming from Space Station
objects crossing your sky now

FENGYUN 1C DEB

Track FENGYUN 1C DEB now!
10-day predictions


NORAD ID: 29929
Int'l Code: 1999-025JB
Perigee: 810.1 km
Apogee: 1,001.0 km
Inclination: 98.6 °
Period: 103.0 minutes
Semi major axis: 7276 km
RCS: 0.0297 m2 (small)
Launch date: May 10, 1999
Source: People's Republic of China (PRC)
Launch site: Taiyaun Space Center, China (TSC)

Note: This is SATELLITE DEBRIS
Your satellite tracking list
Your tracking list is empty




NASA's NSSDC Master Catalog

Two Line Element Set (TLE):
1 29929U 99025JB  24325.79954529  .00002725  00000-0  17879-2 0  9992
2 29929  98.6231 260.6854 0131142 178.0318 210.5594 13.98667076905411
Source of the keplerian elements: AFSPC